Volver al catálogo

METEOR 2-11 DEB

ActivoPO
NORAD 40703·DEBRIS·🇷🇺 Russia

Lanzado Jul 5, 1984 desde Plesetsk Cosmodrome

Loading…

Próximos Pases (próximas 24 horas)

TLE

ObsoletoSource: Space-Track

Época: Aug 23, 2026, 22:27 UTC

1 40703U 84072E   26235.93565636  .00001913  00000-0  13577-2 0  9995
2 40703  82.5125 313.4782 0008435 131.3840 228.8054 13.97162391578727

Sigue METEOR 2-11 DEB en tiempo real con AllMySat

Download on the App Store